User: anonymous   Login
Location: Unspecified
(0.0000°N, 0.0000°E)
Time: 20:08:55
(UTC+00:00)
Language:

MOZHAYETS 4 - Orbit

View from above orbital plane
View from above orbital plane
View from above satellite
View from above satellite

Ground track
Ground track

The orbit data is extracted from the following two-line orbital elements,

1 27939U 03042A   18114.90451307  .00853576  00000-0  12756+0 0  9997
2 27939  97.9811 255.4493 0011237 330.0940 163.3216 14.71861830779006
Epoch (UTC): 24 April 2018 21:42:29
Eccentricity: 0.0011237
inclination: 97.9811°
perigee height: 647 km
apogee height: 663 km
right ascension of ascending node: 255.4493°
argument of perigee: 330.0940°
revolutions per day: 14.71861830
mean anomaly at epoch: 163.3216°
orbit number at epoch: 77900

The dashed part of the orbit path shows where the satellite is in the earth's shadow,  

DLR